FENGYUN 1C DEB, 30053

Orbit data source: Space-Track

FENGYUN 1C DEB, 30053 is space debris in SSO originally from a launch on Mon, 10 May 1999 UTC launched from the Taiyaun Space Center, China (TSC). Fengyun 1C debris stems from the Chinese weather satellite Fengyun-1C, which was intentionally destroyed by a Chinese anti-satellite missile in 2007. This event dramatically increased the amount of space debris, with thousands of trackable fragments posing hazards to satellites and human spaceflight. The Fengyun 1C debris cloud has become a focal point in discussions about space sustainability and the need for international regulations to prevent the creation of new debris.

Loading next visibility...
Identifier
30053, 1999-025PE
Orbit
SSO
Country
Flag of CNCN / PRC
Related business
Manufacturer
Unknown
Mission
Spacecraft
Bus & Motor
Unknown
Mass
Unknown
Launch date (UTC)
1999-05-10 (27 years ago)
Launch vehicle
Unknown
Launch site
Taiyaun Space Center, China (TSC)
Object type
Payload
Rocket body
Debris
Shape & HBR
Unknown shape, 0.1 m
Radar Cross Section
Small (<0.1 m²)

Expand to show TLE details & history
Last TLE update: 12 hours ago

TLE from 12 hours ago
0 FENGYUN 1C DEB
1 30053U 99025PE  26061.95904365  .00002628  00000-0  12606-2 0  9997
2 30053  98.5854 234.6008 0329418 115.9978  35.0060 13.94924093961040
Epoch: 2026-03-02T23:01Z
TLE epoch observation values (Epoch: 2026-03-02T23:01:01.371Z)
Latitude
26.47036°
Longitude
-87.11187°
Altitude
720.603 km
Speed
7.597 km/s
True Right ascension
03h 55m 33s
True Declination
26° 19' 58"
Sunlit
Object was in daylight at epoch
Visualization orbit readout
Latitude
Unknown
Longitude
Unknown
Altitude
Unknown
Speed
Unknown
Apparent Right ascension
Unknown
Apparent Declination
Unknown
Sunlit
N/A
Visualization observer readout
Local Sidereal Time
14:47:28
Azimuth
Unknown
Elevation
Unknown
Doppler factor
Unknown
Orbital elements
Apogee altitude
1,148.646 km
Perigee altitude
668.569 km
Semi-major axis
7,286.744 km
Eccentricity
0.03294
Inclination
98.5854°
RAAN
234.6008°
Arg. of periapsis
115.9978°
True anomaly
37.24639°
Mean anomaly
35.006°
Eccentric anomaly
36.11856°
Mean motion
3.48934 °/min
Orbital period
103.17 mins
BSTAR
0.0012606
Loading maneuver chart data...
Computing Atmospheric mass density...

Documentation

Showing up to 5 results
|